Location: Munkebjergskolens Observatorium
(55.3864°N, 10.3987°E)
Time: 04:05:10
(UTC+02:00)

KKS-1 - Pass Details

Date: 03 April 2023
Orbit: 633 x 644 km, 98.2° (Epoch: 31 May)

Event Time Altitude Azimuth Distance (km) Brightness Sun altitude
Rises 02:17:14 0° 5° (N) 2,947 ? -28.4°
Reaches altitude 10° 02:20:48 10° 334° (NNW) 2,032 ? -28.3°
Maximum altitude 02:22:24 12° 313° (NW) 1,907 ? -28.2°
Enters shadow 02:23:32 11° 297° (WNW) 1,967 ? -28.1°
